Simultaneous Nadir Overpasses (SNOs) Predictions

Prediction of SNOs between LANDSAT-8 and NOAA-19 Satellite Orbit:

Table of predicted SNOs for the next 14.0 days since TLE Epoch: 5/21/2021
Index Date (LANDSAT-8) Time (LANDSAT-8) Lat,Lon (LANDSAT-8) SZA (LANDSAT-8 ) Date (NOAA-19) Time (NOAA-19) Lat,Lon (NOAA-19) SZA (NOAA-19 ) Distance(km) Time Diff (sec)
1 05/22/2021 17:06:17 80.36, -45.76 61.32 05/22/2021 17:06:02 80.37, -45.75 61.33 1.30 15
2 05/22/2021 17:55:44 -80.36, 121.87 118.69 05/22/2021 17:56:56 -80.35, 121.90 118.67 1.03 72
3 05/24/2021 22:40:02 -80.39, 51.05 119.06 05/24/2021 22:39:07 -80.37, 51.08 119.09 1.66 55
4 05/24/2021 23:29:29 80.36,-141.59 60.89 05/24/2021 23:30:12 80.36,-141.55 60.92 1.01 43
5 05/27/2021 05:03:14 -80.38, -44.78 119.46 05/27/2021 05:03:17 -80.37, -44.80 119.47 1.66 3
6 05/29/2021 10:36:59 80.37, 51.70 60.17 05/29/2021 10:36:33 80.38, 51.79 60.17 1.64 26
7 05/29/2021 11:26:26 -80.38,-140.63 119.83 05/29/2021 11:27:27 -80.36,-140.70 119.82 1.96 61
8 05/31/2021 16:10:44 -80.40, 148.51 120.12 05/31/2021 16:09:38 -80.39, 148.42 120.16 1.95 66
9 05/31/2021 17:00:11 80.37, -44.17 59.82 05/31/2021 17:00:43 80.38, -44.13 59.85 1.41 32



Historial Predications of SNOs between LANDSAT-8 and NOAA-19
